Regional Weather Roundup
Issued by NWS

Home | Current Version | Previous Version | Graphics & Text | Print | Product List | Glossary On
Versions: 1 2 3 4 5 6 7 8 9 10 11 12 13 14 15 16 17 18 19 20 21 22 23 24 25 26 27 28 29 30 31 32 33 34 35 36 37 38 39 40 41 42 43 44 45 46 47 48 49 50
236
ASUS44 KLIX 161201
RWRLA
LOUISIANA WEATHER ROUNDUP
NATIONAL WEATHER SERVICE NEW ORLEANS LA
700 AM CDT WED APR 16 2014

NOTE: "FAIR" INDICATES FEW OR NO CLOUDS BELOW 12,000 FEET WITH NO
      SIGNIFICANT WEATHER AND/OR OBSTRUCTIONS TO VISIBILITY.
      SKY/WX - SKY CONDITION AND SIGNIFICANT WEATHER.
      TMP - AIR TEMPERATURE.    DP   - DEWPOINT TEMPERATURE.
      RH  - RELATIVE HUMIDITY.  PRES - PRESSURE.
      HX  - HEAT INDEX.         WCI  - WIND CHILL INDEX.

*  THESE STATIONS ARE NOT NWS OR FAA STATIONS AND ARE NOT UNDER
   NWS QUALITY CONTROL.

LAZ040-048-061>063-065-066-069-161300-
SOUTHEAST LOUISIANA

CITY           SKY/WX    TMP DP  RH WIND       PRES   REMARKS
N.O. AUDUBON     N/A     48  32  52 MISG        N/A
6HR MIN TEMP:  46; 6HR MAX TEMP:  50;

N.O. INTL ARPT CLEAR     47  33  58 E6        30.22R
6HR MIN TEMP:  47; 6HR MAX TEMP:  51;

N.O. LAKEFRONT CLEAR     48  34  58 E17       30.22R
6HR MIN TEMP:  48; 6HR MAX TEMP:  52;

N.O. DOWNTOWN* FAIR      48  28  46 NE7       30.22R
6HR MIN TEMP:  46; 6HR MAX TEMP:  52;

SLIDELL        CLEAR     41  32  70 NE5       30.22R
6HR MIN TEMP:  39; 6HR MAX TEMP:  46;

BATON ROUGE    CLEAR     37  33  85 CALM      30.23R
6HR MIN TEMP:  37; 6HR MAX TEMP:  44;

BOOTHVILLE     CLEAR     54  40  59 E10       30.19R
6HR MIN TEMP:  53; 6HR MAX TEMP:  56;

BELLE CHASSE   CLEAR     45  35  68 N6        30.21R
6HR MIN TEMP:  44; 6HR MAX TEMP:  50;

BOGALUSA*        N/A     37  33  87 N5        30.23R WCI  33
6HR MIN TEMP:  36; 6HR MAX TEMP:  41;

GALLIANO*      NOT AVBL
NEW ROADS*     NOT AVBL
GONZALES*      FAIR      38  36  91 CALM      30.22R
6HR MIN TEMP:  38; 6HR MAX TEMP:  46;

HAMMOND*       NOT AVBL
HOUMA*         CLEAR     43  37  81 NE5       30.21R
PORT FOURCHON* MOSUNNY   52  41  66 N9        30.21R

$$

LAZ041-044-053-054-161300-
SOUTHWEST LOUISIANA

CITY           SKY/WX    TMP DP  RH WIND       PRES   REMARKS
LAKE CHARLES   CLEAR     37  34  89 E6        30.22R WCI  32
6HR MIN TEMP:  36; 6HR MAX TEMP:  45;

LAFAYETTE      CLEAR     39  35  86 CALM      30.23R
6HR MIN TEMP:  39; 6HR MAX TEMP:  46;

PATTERSON      CLEAR     43  36  75 E5        30.25R
6HR MIN TEMP:  41; 6HR MAX TEMP:  48;

SALT POINT       N/A     44  38  79 CALM      30.21R
6HR MIN TEMP:  44; 6HR MAX TEMP:  50;

NEW IBERIA     CLEAR     42  35  76 NE7       30.23R
6HR MIN TEMP:  40; 6HR MAX TEMP:  47;

CHENAULT AIRPK CLEAR     39  36  87 CALM      30.23S

$$

LAZ027-028-161300-
CENTRAL LOUISIANA

CITY           SKY/WX    TMP DP  RH WIND       PRES   REMARKS
FORT POLK      CLEAR     35  34  96 CALM      30.23R
6HR MIN TEMP:  35; 6HR MAX TEMP:  44;

ALEXANDRIA INT CLEAR     38  34  85 CALM      30.22R
6HR MIN TEMP:  37; 6HR MAX TEMP:  43;

ALEXANDRIA     CLEAR     34  31  88 CALM      30.24R
6HR MIN TEMP:  33; 6HR MAX TEMP:  44;


$$

LAZ001-002-161300-
NORTHWEST LOUISIANA

CITY           SKY/WX    TMP DP  RH WIND       PRES   REMARKS
SHREVEPORT     PTCLDY    38  33  82 SE3       30.21R
6HR MIN TEMP:  37; 6HR MAX TEMP:  44;

BARKSDALE AFB  CLEAR     36  33  91 SE2       30.22R
6HR MIN TEMP:  35; 6HR MAX TEMP:  44;

DTN SHREVEPORT CLEAR     40  32  73 SE7       30.22R
6HR MIN TEMP:  39; 6HR MAX TEMP:  45;


$$

LAZ014-016-161300-
NORTHEAST LOUISIANA

CITY           SKY/WX    TMP DP  RH WIND       PRES   REMARKS
MONROE         CLEAR     36  33  89 CALM      30.25R
6HR MIN TEMP:  36; 6HR MAX TEMP:  43;

TALLULAH       CLEAR     42  31  64 E7        30.25R
6HR MIN TEMP:  42; 6HR MAX TEMP:  46;


$$




USA.gov is the U.S. government's official web portal to all federal, state and local government web resources and services.